| time (UTC) | temp F | wind direction | speed MPH | gust MPH | rain 1hr in | rain 24hr in | rain mn in | humidity % | barometer mb |
| 20260831081900 | 74 | 143 | 0.0 | 0.0 | 0.00 | 0.00 | 0.00 | 49 | 1018.7 |
| 20260831081357 | 74 | 138 | 0.0 | 0.0 | 0.00 | 0.00 | 0.00 | 49 | 1019.0 |
| 20260831080845 | 74 | 147 | 0.0 | 0.0 | 0.00 | 0.00 | 0.00 | 48 | 1019.0 |
| 20260831080333 | 74 | 126 | 0.0 | 0.0 | 0.00 | 0.00 | 0.00 | 48 | 1019.4 |
| 20260831075833 | 74 | 142 | 0.0 | 0.0 | 0.00 | 0.00 | 0.00 | 48 | 1019.0 |
| 20260831075323 | 74 | 143 | 0.0 | 0.0 | 0.00 | 0.00 | 0.00 | 48 | 1019.0 |
| 20260831074814 | 74 | 143 | 0.0 | 0.0 | 0.00 | 0.00 | 0.00 | 48 | 1019.4 |
| 20260831074314 | 74 | 144 | 0.0 | 0.0 | 0.00 | 0.00 | 0.00 | 48 | 1019.0 |
| 20260831073810 | 74 | 157 | 0.0 | 0.0 | 0.00 | 0.00 | 0.00 | 47 | 1019.4 |
| 20260831073256 | 74 | 138 | 0.0 | 0.0 | 0.00 | 0.00 | 0.00 | 47 | 1019.4 |
| 20260831072753 | 74 | 138 | 0.0 | 0.0 | 0.00 | 0.00 | 0.00 | 47 | 1019.0 |
| 20260831072237 | 75 | 140 | 0.0 | 0.0 | 0.00 | 0.00 | 0.00 | 47 | 1019.4 |
| 20260831071733 | 75 | 138 | 0.0 | 0.0 | 0.00 | 0.00 | 0.00 | 46 | 1019.0 |
| 20260831071220 | 75 | 156 | 0.0 | 1.0 | 0.00 | 0.00 | 0.00 | 46 | 1019.4 |
| 20260831070709 | 76 | 138 | 0.0 | 2.0 | 0.00 | 0.00 | 0.00 | 45 | 1019.4 |
| 20260831070209 | 76 | 134 | 0.0 | 3.0 | 0.00 | 0.00 | 0.00 | 45 | 1019.0 |
| 20260831065930 | 76 | 150 | 0.0 | 3.0 | 0.00 | 0.00 | 0.00 | 45 | 1019.0 |
| 20260831065418 | 76 | 158 | 0.0 | 1.0 | 0.00 | 0.00 | 0.00 | 45 | 1019.0 |
| 20260831064647 | 76 | 142 | 0.0 | 1.0 | 0.00 | 0.00 | 0.00 | 44 | 1018.7 |
| 20260831064134 | 76 | 146 | 0.0 | 1.0 | 0.00 | 0.00 | 0.00 | 45 | 1019.4 |
| 20260831064119 | 76 | 147 | 0.0 | 1.0 | 0.00 | 0.00 | 0.00 | 44 | 1019.0 |
| 20260831063126 | 76 | 142 | 0.0 | 1.0 | 0.00 | 0.00 | 0.00 | 44 | 1019.0 |
| 20260831062625 | 76 | 146 | 0.0 | 2.0 | 0.00 | 0.00 | 0.00 | 44 | 1019.0 |
| 20260831062114 | 76 | 146 | 0.0 | 2.0 | 0.00 | 0.00 | 0.00 | 44 | 1019.4 |
| 20260831061614 | 76 | 127 | 0.0 | 1.0 | 0.00 | 0.00 | 0.00 | 44 | 1019.4 |
| 20260831061327 | 77 | 146 | 0.0 | 1.0 | 0.00 | 0.00 | 0.00 | 43 | 1019.0 |
| 20260831060557 | 77 | 131 | 0.0 | 1.0 | 0.00 | 0.00 | 0.00 | 43 | 1019.4 |
| 20260831060034 | 77 | 143 | 0.0 | 1.0 | 0.00 | 0.00 | 0.00 | 43 | 1019.0 |
| 20260831055535 | 77 | 127 | 0.0 | 1.0 | 0.00 | 0.00 | 0.00 | 42 | 1019.0 |
| 20260831055023 | 77 | 117 | 0.0 | 4.0 | 0.00 | 0.00 | 0.00 | 42 | 1019.4 |
| 20260831054733 | 78 | 167 | 0.0 | 6.0 | 0.00 | 0.00 | 0.00 | 42 | 1019.0 |
| 20260831054003 | 78 | 147 | 0.0 | 7.0 | 0.00 | 0.00 | 0.00 | 41 | 1018.7 |
| 20260831053502 | 78 | 108 | 1.0 | 7.0 | 0.00 | 0.00 | 0.00 | 41 | 1018.7 |
| 20260831052947 | 78 | 164 | 2.0 | 7.0 | 0.00 | 0.00 | 0.00 | 41 | 1018.7 |
| 20260831052428 | 78 | 149 | 0.0 | 7.0 | 0.00 | 0.00 | 0.00 | 40 | 1019.0 |
| 20260831051929 | 78 | 133 | 1.0 | 7.0 | 0.00 | 0.00 | 0.00 | 40 | 1018.7 |
| 20260831051646 | 79 | 126 | 0.0 | 4.0 | 0.00 | 0.00 | 0.00 | 40 | 1018.7 |
| 20260831050914 | 79 | 136 | 0.0 | 4.0 | 0.00 | 0.00 | 0.00 | 40 | 1018.3 |
| 20260831050615 | 79 | 134 | 1.0 | 4.0 | 0.00 | 0.00 | 0.00 | 40 | 1018.7 |
| 20260831045850 | 79 | 141 | 0.0 | 6.0 | 0.00 | 0.00 | 0.00 | 40 | 1018.7 |
| 20260831045343 | 79 | 137 | 0.0 | 7.0 | 0.00 | 0.00 | 0.00 | 39 | 1019.0 |
| 20260831044836 | 79 | 138 | 0.0 | 7.0 | 0.00 | 0.00 | 0.00 | 39 | 1018.7 |
| 20260831044332 | 79 | 156 | 2.0 | 9.0 | 0.00 | 0.00 | 0.00 | 38 | 1018.3 |
| 20260831044054 | 80 | 126 | 1.0 | 11.0 | 0.00 | 0.00 | 0.00 | 38 | 1018.3 |
| 20260831043552 | 80 | 135 | 0.0 | 11.0 | 0.00 | 0.00 | 0.00 | 38 | 1018.7 |
| 20260831042827 | 80 | 117 | 2.0 | 9.0 | 0.00 | 0.00 | 0.00 | 37 | 1018.7 |
| 20260831042801 | 81 | 165 | 3.0 | 9.0 | 0.00 | 0.00 | 0.00 | 37 | 1018.3 |
| 20260831041758 | 81 | 115 | 0.0 | 4.0 | 0.00 | 0.00 | 0.00 | 37 | 1018.3 |
| 20260831041256 | 81 | 157 | 1.0 | 13.0 | 0.00 | 0.00 | 0.00 | 36 | 1018.3 |
| 20260831040754 | 81 | 131 | 2.0 | 13.0 | 0.00 | 0.00 | 0.00 | 36 | 1018.3 |
| 20260831040243 | 81 | 128 | 0.0 | 8.0 | 0.00 | 0.00 | 0.00 | 36 | 1018.7 |
| 20260831035733 | 81 | 158 | 1.0 | 8.0 | 0.00 | 0.00 | 0.00 | 36 | 1018.3 |
| 20260831035217 | 82 | 134 | 0.0 | 6.0 | 0.00 | 0.00 | 0.00 | 35 | 1018.3 |
| 20260831034715 | 82 | 147 | 0.0 | 6.0 | 0.00 | 0.00 | 0.00 | 35 | 1018.7 |
| 20260831034214 | 82 | 126 | 1.0 | 10.0 | 0.00 | 0.00 | 0.00 | 35 | 1018.7 |
| 20260831033651 | 82 | 139 | 4.0 | 10.0 | 0.00 | 0.00 | 0.00 | 35 | 1018.3 |
| 20260831033146 | 82 | 141 | 0.0 | 10.0 | 0.00 | 0.00 | 0.00 | 34 | 1018.3 |
| 20260831032638 | 83 | 115 | 2.0 | 7.0 | 0.00 | 0.00 | 0.00 | 34 | 1018.3 |
| 20260831032135 | 83 | 127 | 0.0 | 7.0 | 0.00 | 0.00 | 0.00 | 34 | 1018.3 |
| 20260831031630 | 83 | 117 | 2.0 | 7.0 | 0.00 | 0.00 | 0.00 | 34 | 1018.3 |
| 20260831031120 | 83 | 122 | 0.0 | 10.0 | 0.00 | 0.00 | 0.00 | 33 | 1018.0 |
| 20260831030619 | 84 | 90 | 1.0 | 10.0 | 0.00 | 0.00 | 0.00 | 33 | 1018.0 |
| 20260831030118 | 84 | 145 | 0.0 | 9.0 | 0.00 | 0.00 | 0.00 | 33 | 1017.7 |
| 20260831025614 | 84 | 120 | 2.0 | 9.0 | 0.00 | 0.00 | 0.00 | 32 | 1018.0 |
| 20260831025105 | 85 | 120 | 5.0 | 9.0 | 0.00 | 0.00 | 0.00 | 32 | 1017.7 |
| 20260831024559 | 85 | 117 | 2.0 | 9.0 | 0.00 | 0.00 | 0.00 | 31 | 1017.7 |
| 20260831024051 | 85 | 114 | 1.0 | 9.0 | 0.00 | 0.00 | 0.00 | 31 | 1018.0 |
| 20260831024023 | 86 | 138 | 2.0 | 9.0 | 0.00 | 0.00 | 0.00 | 31 | 1017.7 |
| 20260831023035 | 86 | 122 | 0.0 | 9.0 | 0.00 | 0.00 | 0.00 | 30 | 1017.3 |
| 20260831022531 | 86 | 148 | 0.0 | 7.0 | 0.00 | 0.00 | 0.00 | 30 | 1017.3 |
| 20260831022015 | 86 | 117 | 2.0 | 7.0 | 0.00 | 0.00 | 0.00 | 30 | 1017.3 |
| 20260831021509 | 86 | 106 | 1.0 | 7.0 | 0.00 | 0.00 | 0.00 | 30 | 1017.3 |
| 20260831021002 | 87 | 116 | 1.0 | 7.0 | 0.00 | 0.00 | 0.00 | 30 | 1017.0 |
| 20260831020503 | 87 | 162 | 1.0 | 8.0 | 0.00 | 0.00 | 0.00 | 30 | 1017.3 |
| 20260831015959 | 87 | 140 | 0.0 | 8.0 | 0.00 | 0.00 | 0.00 | 30 | 1017.0 |
| 20260831015713 | 88 | 126 | 0.0 | 8.0 | 0.00 | 0.00 | 0.00 | 29 | 1017.0 |
| 20260831014947 | 88 | 128 | 3.0 | 8.0 | 0.00 | 0.00 | 0.00 | 29 | 1017.0 |
| 20260831014655 | 88 | 150 | 1.0 | 10.0 | 0.00 | 0.00 | 0.00 | 29 | 1016.7 |
| 20260831013928 | 89 | 132 | 2.0 | 10.0 | 0.00 | 0.00 | 0.00 | 28 | 1017.0 |
| 20260831013427 | 89 | 129 | 4.0 | 9.0 | 0.00 | 0.00 | 0.00 | 28 | 1016.7 |
| 20260831012926 | 89 | 138 | 1.0 | 9.0 | 0.00 | 0.00 | 0.00 | 27 | 1016.7 |
| 20260831012424 | 90 | 125 | 0.0 | 8.0 | 0.00 | 0.00 | 0.00 | 27 | 1017.0 |
| 20260831011923 | 90 | 122 | 3.0 | 7.0 | 0.00 | 0.00 | 0.00 | 27 | 1016.7 |
| 20260831011415 | 90 | 126 | 0.0 | 13.0 | 0.00 | 0.00 | 0.00 | 27 | 1017.0 |
| 20260831011132 | 91 | 148 | 1.0 | 13.0 | 0.00 | 0.00 | 0.00 | 26 | 1016.7 |
| 20260831010358 | 91 | 142 | 0.0 | 11.0 | 0.00 | 0.00 | 0.00 | 26 | 1016.7 |
| 20260831005854 | 91 | 137 | 2.0 | 13.0 | 0.00 | 0.00 | 0.00 | 26 | 1016.7 |
| 20260831005352 | 91 | 109 | 1.0 | 15.0 | 0.00 | 0.00 | 0.00 | 26 | 1017.0 |
| 20260831004847 | 92 | 117 | 4.0 | 15.0 | 0.00 | 0.00 | 0.00 | 26 | 1016.7 |
| 20260831004344 | 92 | 117 | 5.0 | 15.0 | 0.00 | 0.00 | 0.00 | 26 | 1016.7 |
| 20260831003835 | 92 | 175 | 5.0 | 15.0 | 0.00 | 0.00 | 0.00 | 25 | 1016.7 |
| 20260831003324 | 92 | 113 | 9.0 | 15.0 | 0.00 | 0.00 | 0.00 | 25 | 1017.0 |
| 20260831002820 | 93 | 136 | 1.0 | 13.0 | 0.00 | 0.00 | 0.00 | 25 | 1016.7 |
| 20260831002306 | 93 | 139 | 1.0 | 13.0 | 0.00 | 0.00 | 0.00 | 24 | 1016.7 |
| 20260831001759 | 93 | 114 | 9.0 | 13.0 | 0.00 | 0.00 | 0.00 | 24 | 1016.7 |
| 20260831001251 | 94 | 122 | 6.0 | 11.0 | 0.00 | 0.00 | 0.00 | 24 | 1016.7 |
| 20260831000746 | 94 | 138 | 1.0 | 14.0 | 0.00 | 0.00 | 0.00 | 24 | 1016.7 |
| 20260831000236 | 94 | 153 | 7.0 | 14.0 | 0.00 | 0.00 | 0.00 | 24 | 1017.0 |
| 20260830235726 | 94 | 124 | 0.0 | 8.0 | 0.00 | 0.00 | 0.00 | 24 | 1016.7 |
| 20260830235212 | 95 | 135 | 1.0 | 11.0 | 0.00 | 0.00 | 0.00 | 24 | 1017.0 |
| 20260830234701 | 94 | 151 | 2.0 | 10.0 | 0.00 | 0.00 | 0.00 | 23 | 1017.0 |
| 20260830234200 | 95 | 140 | 0.0 | 10.0 | 0.00 | 0.00 | 0.00 | 24 | 1017.0 |
| 20260830233645 | 95 | 163 | 7.0 | 13.0 | 0.00 | 0.00 | 0.00 | 23 | 1016.7 |
| 20260830233404 | 95 | 142 | 6.0 | 15.0 | 0.00 | 0.00 | 0.00 | 24 | 1016.7 |
| 20260830232633 | 94 | 118 | 4.0 | 15.0 | 0.00 | 0.00 | 0.00 | 24 | 1016.7 |
| 20260830232130 | 94 | 169 | 4.0 | 8.0 | 0.00 | 0.00 | 0.00 | 24 | 1016.7 |
| 20260830231849 | 95 | 128 | 0.0 | 4.0 | 0.00 | 0.00 | 0.00 | 23 | 1016.7 |
| 20260830231120 | 95 | 158 | 0.0 | 4.0 | 0.00 | 0.00 | 0.00 | 24 | 1017.0 |
| 20260830230620 | 95 | 113 | 2.0 | 8.0 | 0.00 | 0.00 | 0.00 | 24 | 1016.7 |
| 20260830230114 | 96 | 158 | 0.0 | 8.0 | 0.00 | 0.00 | 0.00 | 23 | 1016.7 |
| 20260830225604 | 97 | 141 | 0.0 | 13.0 | 0.00 | 0.00 | 0.00 | 23 | 1016.7 |
| 20260830225056 | 96 | 198 | 0.0 | 13.0 | 0.00 | 0.00 | 0.00 | 22 | 1016.7 |
| 20260830224550 | 96 | 112 | 1.0 | 14.0 | 0.00 | 0.00 | 0.00 | 23 | 1016.7 |
| 20260830224037 | 96 | 124 | 2.0 | 14.0 | 0.00 | 0.00 | 0.00 | 23 | 1016.7 |
| 20260830223538 | 96 | 138 | 1.0 | 7.0 | 0.00 | 0.00 | 0.00 | 23 | 1016.7 |
| 20260830223027 | 96 | 115 | 0.0 | 7.0 | 0.00 | 0.00 | 0.00 | 23 | 1017.0 |
| 20260830222743 | 98 | 160 | 0.0 | 8.0 | 0.00 | 0.00 | 0.00 | 22 | 1016.7 |
| 20260830222504 | 98 | 110 | 0.0 | 8.0 | 0.00 | 0.00 | 0.00 | 22 | 1016.7 |
| 20260830221721 | 98 | 147 | 1.0 | 10.0 | 0.00 | 0.00 | 0.00 | 22 | 1017.0 |
| 20260830220952 | 98 | 156 | 5.0 | 10.0 | 0.00 | 0.00 | 0.00 | 22 | 1017.0 |
| 20260830220440 | 98 | 125 | 0.0 | 4.0 | 0.00 | 0.00 | 0.00 | 22 | 1017.0 |
| 20260830215940 | 98 | 163 | 0.0 | 4.0 | 0.00 | 0.00 | 0.00 | 22 | 1017.0 |
| 20260830215430 | 97 | 141 | 1.0 | 6.0 | 0.00 | 0.00 | 0.00 | 23 | 1017.0 |
| 20260830214926 | 97 | 156 | 0.0 | 6.0 | 0.00 | 0.00 | 0.00 | 22 | 1017.0 |
| 20260830214426 | 97 | 167 | 2.0 | 10.0 | 0.00 | 0.00 | 0.00 | 22 | 1016.7 |
| 20260830213925 | 96 | 126 | 0.0 | 10.0 | 0.00 | 0.00 | 0.00 | 23 | 1017.3 |
| 20260830213419 | 98 | 153 | 0.0 | 1.0 | 0.00 | 0.00 | 0.00 | 22 | 1017.0 |
| 20260830212904 | 99 | 150 | 0.0 | 8.0 | 0.00 | 0.00 | 0.00 | 22 | 1017.3 |
| 20260830212404 | 98 | 148 | 0.0 | 8.0 | 0.00 | 0.00 | 0.00 | 22 | 1017.0 |
| 20260830211854 | 98 | 126 | 1.0 | 10.0 | 0.00 | 0.00 | 0.00 | 21 | 1017.0 |
| 20260830211339 | 99 | 169 | 0.0 | 10.0 | 0.00 | 0.00 | 0.00 | 21 | 1017.0 |
| 20260830210835 | 98 | 206 | 0.0 | 10.0 | 0.00 | 0.00 | 0.00 | 21 | 1017.3 |
| 20260830210330 | 97 | 180 | 2.0 | 10.0 | 0.00 | 0.00 | 0.00 | 22 | 1017.7 |
| 20260830205817 | 96 | 148 | 0.0 | 7.0 | 0.00 | 0.00 | 0.00 | 24 | 1017.3 |
| 20260830205535 | 96 | 122 | 0.0 | 7.0 | 0.00 | 0.00 | 0.00 | 23 | 1017.7 |
| 20260830204806 | 98 | 208 | 0.0 | 3.0 | 0.00 | 0.00 | 0.00 | 22 | 1017.3 |
| 20260830204248 | 97 | 120 | 1.0 | 3.0 | 0.00 | 0.00 | 0.00 | 23 | 1017.3 |
| 20260830203741 | 97 | 195 | 0.0 | 0.0 | 0.00 | 0.00 | 0.00 | 22 | 1017.7 |
| 20260830203233 | 98 | 122 | 0.0 | 6.0 | 0.00 | 0.00 | 0.00 | 22 | 1018.0 |
| 20260830202732 | 98 | 202 | 0.0 | 9.0 | 0.00 | 0.00 | 0.00 | 22 | 1018.0 |
| 20260830202215 | 97 | 116 | 0.0 | 9.0 | 0.00 | 0.00 | 0.00 | 23 | 1018.0 |
| 20260830201933 | 97 | 130 | 2.0 | 9.0 | 0.00 | 0.00 | 0.00 | 23 | 1018.0 |
| 20260830201204 | 96 | 168 | 0.0 | 3.0 | 0.00 | 0.00 | 0.00 | 24 | 1018.0 |
| 20260830200652 | 98 | 195 | 0.0 | 0.0 | 0.00 | 0.00 | 0.00 | 23 | 1018.3 |
| 20260830200148 | 100 | 181 | 0.0 | 0.0 | 0.00 | 0.00 | 0.00 | 22 | 1018.3 |
| 20260830195637 | 98 | 313 | 0.0 | 1.0 | 0.00 | 0.00 | 0.00 | 23 | 1018.3 |
| 20260830195356 | 97 | 119 | 0.0 | 1.0 | 0.00 | 0.00 | 0.00 | 23 | 1018.7 |
| 20260830194855 | 99 | 176 | 0.0 | 13.0 | 0.00 | 0.00 | 0.00 | 23 | 1018.3 |
| 20260830194131 | 98 | 149 | 0.0 | 13.0 | 0.00 | 0.00 | 0.00 | 23 | 1018.3 |
| 20260830193623 | 99 | 186 | 0.0 | 2.0 | 0.00 | 0.00 | 0.00 | 22 | 1018.3 |
| 20260830193117 | 100 | 171 | 0.0 | 2.0 | 0.00 | 0.00 | 0.00 | 21 | 1018.7 |
| 20260830192605 | 99 | 124 | 1.0 | 7.0 | 0.00 | 0.00 | 0.00 | 22 | 1018.3 |
| 20260830192054 | 98 | 173 | 1.0 | 7.0 | 0.00 | 0.00 | 0.00 | 22 | 1018.7 |
| 20260830191812 | 98 | 183 | 0.0 | 7.0 | 0.00 | 0.00 | 0.00 | 23 | 1018.7 |
| 20260830191045 | 99 | 197 | 0.0 | 7.0 | 0.00 | 0.00 | 0.00 | 22 | 1018.7 |
| 20260830190541 | 98 | 171 | 0.0 | 6.0 | 0.00 | 0.00 | 0.00 | 22 | 1018.7 |
| 20260830190033 | 97 | 145 | 0.0 | 9.0 | 0.00 | 0.00 | 0.00 | 24 | 1018.7 |
| 20260830185530 | 98 | 181 | 0.0 | 9.0 | 0.00 | 0.00 | 0.00 | 24 | 1018.7 |
| 20260830185023 | 99 | 204 | 0.0 | 6.0 | 0.00 | 0.00 | 0.00 | 23 | 1018.7 |
| 20260830184515 | 98 | 262 | 0.0 | 8.0 | 0.00 | 0.00 | 0.00 | 24 | 1018.7 |
| 20260830184006 | 96 | 208 | 0.0 | 8.0 | 0.00 | 0.00 | 0.00 | 24 | 1018.7 |
| 20260830183457 | 96 | 173 | 0.0 | 7.0 | 0.00 | 0.00 | 0.00 | 25 | 1018.7 |
| 20260830182955 | 98 | 189 | 0.0 | 7.0 | 0.00 | 0.00 | 0.00 | 23 | 1019.4 |
| 20260830182705 | 98 | 159 | 3.0 | 6.0 | 0.00 | 0.00 | 0.00 | 24 | 1019.0 |
| 20260830181943 | 98 | 140 | 0.0 | 0.0 | 0.00 | 0.00 | 0.00 | 23 | 1019.0 |
| 20260830181444 | 97 | 188 | 0.0 | 8.0 | 0.00 | 0.00 | 0.00 | 24 | 1019.4 |
| 20260830180935 | 97 | 173 | 0.0 | 8.0 | 0.00 | 0.00 | 0.00 | 24 | 1019.4 |
| 20260830180425 | 96 | 194 | 0.0 | 7.0 | 0.00 | 0.00 | 0.00 | 25 | 1019.4 |
| 20260830175912 | 97 | 192 | 0.0 | 2.0 | 0.00 | 0.00 | 0.00 | 24 | 1019.4 |
| 20260830175413 | 96 | 133 | 0.0 | 13.0 | 0.00 | 0.00 | 0.00 | 26 | 1019.4 |
| 20260830174901 | 96 | 207 | 0.0 | 13.0 | 0.00 | 0.00 | 0.00 | 24 | 1019.7 |
| 20260830174606 | 95 | 174 | 0.0 | 2.0 | 0.00 | 0.00 | 0.00 | 25 | 1019.7 |
| 20260830173837 | 96 | 173 | 0.0 | 4.0 | 0.00 | 0.00 | 0.00 | 25 | 1019.4 |
| 20260830173333 | 96 | 155 | 2.0 | 10.0 | 0.00 | 0.00 | 0.00 | 24 | 1019.4 |
| 20260830172830 | 94 | 176 | 1.0 | 10.0 | 0.00 | 0.00 | 0.00 | 26 | 1019.4 |
| 20260830172312 | 96 | 206 | 0.0 | 4.0 | 0.00 | 0.00 | 0.00 | 25 | 1019.4 |
| 20260830171807 | 94 | 180 | 0.0 | 7.0 | 0.00 | 0.00 | 0.00 | 27 | 1019.4 |
| 20260830171256 | 93 | 158 | 0.0 | 7.0 | 0.00 | 0.00 | 0.00 | 28 | 1019.7 |
| 20260830170744 | 93 | 177 | 0.0 | 6.0 | 0.00 | 0.00 | 0.00 | 30 | 1019.7 |
| 20260830170233 | 93 | 182 | 0.0 | 6.0 | 0.00 | 0.00 | 0.00 | 30 | 1020.0 |
| 20260830165713 | 92 | 128 | 1.0 | 6.0 | 0.00 | 0.00 | 0.00 | 32 | 1020.0 |
| 20260830165158 | 92 | 137 | 0.0 | 6.0 | 0.00 | 0.00 | 0.00 | 32 | 1020.0 |
| 20260830164644 | 91 | 171 | 0.0 | 8.0 | 0.00 | 0.00 | 0.00 | 32 | 1020.0 |
| 20260830164135 | 91 | 106 | 0.0 | 8.0 | 0.00 | 0.00 | 0.00 | 33 | 1020.0 |
| 20260830163635 | 89 | 181 | 4.0 | 8.0 | 0.00 | 0.00 | 0.00 | 35 | 1020.0 |
| 20260830163127 | 90 | 148 | 0.0 | 7.0 | 0.00 | 0.00 | 0.00 | 35 | 1020.0 |
| 20260830162613 | 89 | 156 | 0.0 | 8.0 | 0.00 | 0.00 | 0.00 | 37 | 1020.0 |
| 20260830162106 | 88 | 193 | 3.0 | 10.0 | 0.00 | 0.00 | 0.00 | 36 | 1020.0 |
| 20260830161555 | 88 | 119 | 0.0 | 10.0 | 0.00 | 0.00 | 0.00 | 38 | 1020.0 |
| 20260830161041 | 88 | 187 | 0.0 | 10.0 | 0.00 | 0.00 | 0.00 | 37 | 1020.0 |
| 20260830160527 | 88 | 131 | 4.0 | 9.0 | 0.00 | 0.00 | 0.00 | 38 | 1020.0 |
| 20260830160013 | 89 | 180 | 2.0 | 7.0 | 0.00 | 0.00 | 0.00 | 37 | 1020.0 |
| 20260830155502 | 87 | 165 | 0.0 | 6.0 | 0.00 | 0.00 | 0.00 | 38 | 1020.0 |
| 20260830154947 | 87 | 159 | 0.0 | 7.0 | 0.00 | 0.00 | 0.00 | 39 | 1020.0 |
| 20260830154435 | 87 | 177 | 4.0 | 7.0 | 0.00 | 0.00 | 0.00 | 40 | 1020.0 |
| 20260830153936 | 86 | 204 | 2.0 | 7.0 | 0.00 | 0.00 | 0.00 | 40 | 1020.0 |
| 20260830153429 | 86 | 191 | 2.0 | 7.0 | 0.00 | 0.00 | 0.00 | 40 | 1020.4 |
| 20260830153141 | 85 | 152 | 0.0 | 7.0 | 0.00 | 0.00 | 0.00 | 42 | 1020.0 |
| 20260830152404 | 84 | 180 | 0.0 | 6.0 | 0.00 | 0.00 | 0.00 | 42 | 1020.0 |
| 20260830151851 | 84 | 205 | 0.0 | 8.0 | 0.00 | 0.00 | 0.00 | 44 | 1020.0 |
| 20260830151552 | 83 | 223 | 0.0 | 11.0 | 0.00 | 0.00 | 0.00 | 46 | 1019.7 |
| 20260830150831 | 82 | 214 | 0.0 | 11.0 | 0.00 | 0.00 | 0.00 | 47 | 1020.0 |
| 20260830150327 | 82 | 199 | 0.0 | 10.0 | 0.00 | 0.00 | 0.00 | 47 | 1020.0 |
| 20260830145827 | 81 | 135 | 0.0 | 9.0 | 0.00 | 0.00 | 0.00 | 48 | 1020.0 |
| 20260830145328 | 81 | 212 | 5.0 | 9.0 | 0.00 | 0.00 | 0.00 | 50 | 1020.0 |
| 20260830144823 | 80 | 191 | 5.0 | 9.0 | 0.00 | 0.00 | 0.00 | 50 | 1020.0 |
| 20260830144324 | 80 | 182 | 1.0 | 8.0 | 0.00 | 0.00 | 0.00 | 51 | 1020.0 |
| 20260830143811 | 79 | 192 | 1.0 | 8.0 | 0.00 | 0.00 | 0.00 | 52 | 1020.0 |
| 20260830143313 | 79 | 193 | 5.0 | 9.0 | 0.00 | 0.00 | 0.00 | 52 | 1020.4 |
| 20260830143034 | 78 | 181 | 3.0 | 9.0 | 0.00 | 0.00 | 0.00 | 53 | 1020.0 |
| 20260830142312 | 78 | 197 | 4.0 | 7.0 | 0.00 | 0.00 | 0.00 | 54 | 1020.0 |
| 20260830141806 | 77 | 208 | 0.0 | 8.0 | 0.00 | 0.00 | 0.00 | 55 | 1020.4 |
| 20260830141522 | 76 | 142 | 6.0 | 8.0 | 0.00 | 0.00 | 0.00 | 56 | 1020.4 |
| 20260830140746 | 76 | 120 | 0.0 | 8.0 | 0.00 | 0.00 | 0.00 | 56 | 1020.0 |
| 20260830140232 | 76 | 196 | 3.0 | 7.0 | 0.00 | 0.00 | 0.00 | 56 | 1020.4 |
| 20260830135732 | 76 | 159 | 3.0 | 7.0 | 0.00 | 0.00 | 0.00 | 57 | 1020.4 |
| 20260830135218 | 76 | 188 | 5.0 | 7.0 | 0.00 | 0.00 | 0.00 | 57 | 1020.4 |
| 20260830134712 | 75 | 190 | 0.0 | 7.0 | 0.00 | 0.00 | 0.00 | 57 | 1020.4 |
| 20260830134212 | 75 | 198 | 0.0 | 8.0 | 0.00 | 0.00 | 0.00 | 58 | 1020.0 |
| 20260830133934 | 75 | 176 | 3.0 | 9.0 | 0.00 | 0.00 | 0.00 | 58 | 1020.0 |
| 20260830133414 | 74 | 204 | 7.0 | 9.0 | 0.00 | 0.00 | 0.00 | 58 | 1020.0 |
| 20260830132640 | 74 | 197 | 2.0 | 7.0 | 0.00 | 0.00 | 0.00 | 58 | 1019.7 |
| 20260830132134 | 74 | 194 | 3.0 | 7.0 | 0.00 | 0.00 | 0.00 | 59 | 1020.0 |
| 20260830131627 | 73 | 211 | 4.0 | 7.0 | 0.00 | 0.00 | 0.00 | 60 | 1020.0 |
| 20260830131333 | 73 | 186 | 5.0 | 7.0 | 0.00 | 0.00 | 0.00 | 60 | 1020.0 |
| 20260830130613 | 73 | 152 | 0.0 | 4.0 | 0.00 | 0.00 | 0.00 | 60 | 1020.0 |
| 20260830130057 | 73 | 225 | 3.0 | 8.0 | 0.00 | 0.00 | 0.00 | 60 | 1019.7 |
| 20260830125542 | 73 | 187 | 2.0 | 8.0 | 0.00 | 0.00 | 0.00 | 60 | 1019.7 |
| 20260830125038 | 72 | 193 | 3.0 | 6.0 | 0.00 | 0.00 | 0.00 | 60 | 1019.7 |
| 20260830124534 | 72 | 132 | 2.0 | 6.0 | 0.00 | 0.00 | 0.00 | 60 | 1020.0 |
| 20260830124019 | 73 | 184 | 0.0 | 8.0 | 0.00 | 0.00 | 0.00 | 60 | 1019.7 |
| 20260830123509 | 73 | 194 | 0.0 | 8.0 | 0.00 | 0.00 | 0.00 | 59 | 1019.7 |
| 20260830122949 | 73 | 198 | 3.0 | 8.0 | 0.00 | 0.00 | 0.00 | 59 | 1019.7 |
| 20260830122650 | 73 | 201 | 4.0 | 8.0 | 0.00 | 0.00 | 0.00 | 58 | 1019.4 |
| 20260830122133 | 73 | 192 | 3.0 | 8.0 | 0.00 | 0.00 | 0.00 | 58 | 1019.7 |
| 20260830121406 | 73 | 199 | 4.0 | 8.0 | 0.00 | 0.00 | 0.00 | 58 | 1019.7 |
| 20260830120906 | 73 | 194 | 0.0 | 7.0 | 0.00 | 0.00 | 0.00 | 57 | 1019.7 |
| 20260830120403 | 73 | 206 | 0.0 | 8.0 | 0.00 | 0.00 | 0.00 | 57 | 1019.7 |
| 20260830120120 | 73 | 205 | 5.0 | 8.0 | 0.00 | 0.00 | 0.00 | 57 | 1019.4 |
| 20260830115338 | 73 | 201 | 3.0 | 8.0 | 0.00 | 0.00 | 0.00 | 56 | 1019.7 |
| 20260830115040 | 74 | 200 | 6.0 | 8.0 | 0.00 | 0.00 | 0.00 | 56 | 1019.4 |
| 20260830114324 | 74 | 211 | 7.0 | 9.0 | 0.00 | 0.00 | 0.00 | 56 | 1019.7 |
| 20260830113812 | 74 | 210 | 0.0 | 9.0 | 0.00 | 0.00 | 0.00 | 55 | 1019.7 |
| 20260830113305 | 74 | 200 | 4.0 | 8.0 | 0.00 | 0.00 | 0.00 | 55 | 1019.7 |
| 20260830112750 | 74 | 198 | 5.0 | 8.0 | 0.00 | 0.00 | 0.00 | 54 | 1019.7 |
| 20260830112235 | 74 | 198 | 0.0 | 7.0 | 0.00 | 0.00 | 0.00 | 54 | 1019.4 |
| 20260830111720 | 74 | 198 | 2.0 | 4.0 | 0.00 | 0.00 | 0.00 | 54 | 1019.7 |
| 20260830111207 | 74 | 196 | 0.0 | 4.0 | 0.00 | 0.00 | 0.00 | 54 | 1019.4 |
| 20260830110647 | 74 | 191 | 2.0 | 7.0 | 0.00 | 0.00 | 0.00 | 53 | 1019.7 |
| 20260830110133 | 74 | 190 | 1.0 | 7.0 | 0.00 | 0.00 | 0.00 | 53 | 1019.7 |
| 20260830105613 | 74 | 192 | 6.0 | 7.0 | 0.00 | 0.00 | 0.00 | 53 | 1019.7 |
| 20260830105113 | 74 | 185 | 5.0 | 8.0 | 0.00 | 0.00 | 0.00 | 53 | 1020.0 |
| 20260830104555 | 74 | 201 | 4.0 | 9.0 | 0.00 | 0.00 | 0.00 | 53 | 1020.0 |
| 20260830104039 | 74 | 193 | 0.0 | 9.0 | 0.00 | 0.00 | 0.00 | 53 | 1020.0 |
| 20260830103806 | 74 | 202 | 4.0 | 8.0 | 0.00 | 0.00 | 0.00 | 52 | 1019.4 |
| 20260830103030 | 75 | 212 | 0.0 | 8.0 | 0.00 | 0.00 | 0.00 | 52 | 1019.7 |
| 20260830102531 | 75 | 197 | 0.0 | 7.0 | 0.00 | 0.00 | 0.00 | 52 | 1019.4 |
| 20260830102031 | 75 | 182 | 0.0 | 7.0 | 0.00 | 0.00 | 0.00 | 51 | 1019.7 |
| 20260830101532 | 75 | 200 | 0.0 | 7.0 | 0.00 | 0.00 | 0.00 | 51 | 1019.4 |
| 20260830101027 | 74 | 198 | 1.0 | 6.0 | 0.00 | 0.00 | 0.00 | 51 | 1019.7 |
| 20260830100726 | 74 | 199 | 0.0 | 0.0 | 0.00 | 0.00 | 0.00 | 51 | 1019.7 |
| 20260830100008 | 74 | 189 | 0.0 | 1.0 | 0.00 | 0.00 | 0.00 | 50 | 1019.7 |
| 20260830095930 | 75 | 191 | 0.0 | 7.0 | 0.00 | 0.00 | 0.00 | 50 | 1019.7 |
| 20260830094929 | 75 | 205 | 4.0 | 7.0 | 0.00 | 0.00 | 0.00 | 50 | 1019.7 |
| 20260830094424 | 75 | 208 | 2.0 | 7.0 | 0.00 | 0.00 | 0.00 | 50 | 1019.4 |
| 20260830093918 | 75 | 182 | 0.0 | 7.0 | 0.00 | 0.00 | 0.00 | 49 | 1019.4 |
| 20260830093418 | 75 | 199 | 0.0 | 7.0 | 0.00 | 0.00 | 0.00 | 49 | 1019.4 |
| 20260830092919 | 75 | 199 | 5.0 | 7.0 | 0.00 | 0.00 | 0.00 | 49 | 1019.4 |
| 20260830092413 | 74 | 191 | 0.0 | 4.0 | 0.00 | 0.00 | 0.00 | 50 | 1019.4 |
| 20260830091855 | 74 | 180 | 0.0 | 0.0 | 0.00 | 0.00 | 0.00 | 50 | 1019.4 |
| 20260830091351 | 74 | 194 | 0.0 | 0.0 | 0.00 | 0.00 | 0.00 | 50 | 1019.4 |
| 20260830091054 | 73 | 189 | 0.0 | 0.0 | 0.00 | 0.00 | 0.00 | 50 | 1019.4 |
| 20260830090332 | 74 | 189 | 0.0 | 0.0 | 0.00 | 0.00 | 0.00 | 49 | 1019.4 |
| 20260830090051 | 74 | 187 | 0.0 | 0.0 | 0.00 | 0.00 | 0.00 | 49 | 1019.4 |
| 20260830085328 | 74 | 200 | 0.0 | 0.0 | 0.00 | 0.00 | 0.00 | 49 | 1019.4 |
| 20260830085035 | 74 | 184 | 0.0 | 0.0 | 0.00 | 0.00 | 0.00 | 48 | 1019.4 |
| 20260830084312 | 74 | 199 | 0.0 | 1.0 | 0.00 | 0.00 | 0.00 | 48 | 1019.4 |
| 20260830083809 | 75 | 196 | 0.0 | 1.0 | 0.00 | 0.00 | 0.00 | 47 | 1019.4 |
| 20260830083532 | 75 | 186 | 0.0 | 0.0 | 0.00 | 0.00 | 0.00 | 47 | 1019.4 |
| 20260830082751 | 75 | 190 | 0.0 | 0.0 | 0.00 | 0.00 | 0.00 | 47 | 1019.4 |
| 20260830082234 | 75 | 147 | 0.0 | 2.0 | 0.00 | 0.00 | 0.00 | 47 | 1019.4 |
| 20260830082215 | 75 | 181 | 0.0 | 2.0 | 0.00 | 0.00 | 0.00 | 46 | 1019.7 |